Weather History for Greensboro, GA

Change the Weather History Date:

Sunday, January 26, 2014

  Actual Average (KDBN) Record (KDBN)
Temperature  
Mean Temperature 44 °F -  
Max Temperature 59 °F 58 °F 81 °F (1950)
Min Temperature 28 °F 34 °F 14 °F (1940)
Degree Days  
Heating Degree Days 22    
Moisture  
Dew Point 27 °F    
Average Humidity 53    
Maximum Humidity 80    
Minimum Humidity 34    
Precipitation  
Precipitation 0.00 in - - ()
Sea Level Pressure  
Sea Level Pressure 29.93 in    
Wind  
Wind Speed 4 mph (SSW)    
Max Wind Speed 13 mph    
Max Gust Speed 18 mph    
Visibility 10 miles    
Events      
Averages and records for this station are not official NWS values.
T = Trace of Precipitation, MM = Missing Value Source: NWS Daily Summary

Daily Weather History Graph

Daily Weather History Graph

Search for Another Location

Airport:

Trip Planner

Search our weather history database for the weather conditions in past years. The results will help you decide how hot, cold, wet, or windy it might be!

Date:

Astronomy

Jan. 26, 2014 Rise Set
Actual Time 7:32 AM EST 5:58 PM EST
Civil Twilight 7:06 AM EST 6:24 PM EST
Nautical Twilight 6:36 AM EST 6:54 PM EST
Astronomical Twilight 6:06 AM EST 7:24 PM EST
Moon 3:07 AM EST (1/26) 1:47 PM EST (1/26)
Length of Visible Light 11h 18m
Length of Day
10h 25m
Waning Crescent, 24% of the Moon is Illuminated
Jan 26
Waning Crescent
Jan 30
New
Feb 6
First Quarter
Feb 14
Full
Feb 22
Last Quarter

Hourly Weather History & Observations

Time (EST) Temp. Windchill Dew Point Humidity Pressure Visibility Wind Dir Wind Speed Gust Speed Precip Events Conditions
12:15 AM 35.6 °F - 19.4 °F 52% 29.94 in 10.0 mi Calm Calm - N/A   Clear
12:35 AM 35.6 °F 32.8 °F 21.2 °F 56% 29.93 in 10.0 mi SW 3.5 mph - N/A   Clear
12:55 AM 33.8 °F 30.8 °F 21.2 °F 60% 29.93 in 10.0 mi SW 3.5 mph - N/A   Clear
1:15 AM 33.8 °F 30.8 °F 21.2 °F 60% 29.93 in 10.0 mi SW 3.5 mph - N/A   Clear
1:35 AM 33.8 °F 30.8 °F 21.2 °F 60% 29.93 in 10.0 mi SSW 3.5 mph - N/A   Clear
1:55 AM 33.8 °F 30.8 °F 21.2 °F 60% 29.93 in 10.0 mi SSW 3.5 mph - N/A   Clear
2:15 AM 33.8 °F 30.8 °F 21.2 °F 60% 29.93 in 10.0 mi SW 3.5 mph - N/A   Clear
2:35 AM 33.8 °F - 21.2 °F 60% 29.93 in 10.0 mi Calm Calm - N/A   Clear
2:55 AM 33.8 °F 30.8 °F 21.2 °F 60% 29.93 in 10.0 mi SW 3.5 mph - N/A   Clear
3:15 AM 33.8 °F 30.8 °F 21.2 °F 60% 29.93 in 10.0 mi SSW 3.5 mph - N/A   Clear
3:35 AM 33.8 °F - 21.2 °F 60% 29.93 in 10.0 mi Calm Calm - N/A   Clear
3:55 AM 33.8 °F 30.8 °F 21.2 °F 60% 29.93 in 10.0 mi WSW 3.5 mph - N/A   Clear
4:15 AM 33.8 °F 29.6 °F 21.2 °F 60% 29.93 in 10.0 mi SW 4.6 mph - N/A   Clear
4:35 AM 33.8 °F 30.8 °F 21.2 °F 60% 29.93 in 10.0 mi WSW 3.5 mph - N/A   Clear
4:55 AM 33.8 °F 30.8 °F 21.2 °F 60% 29.93 in 10.0 mi WSW 3.5 mph - N/A   Clear
5:15 AM 33.8 °F 30.8 °F 23.0 °F 65% 29.93 in 10.0 mi WSW 3.5 mph - N/A   Clear
5:35 AM 33.8 °F 30.8 °F 23.0 °F 65% 29.94 in 10.0 mi WSW 3.5 mph - N/A   Clear
5:55 AM 33.8 °F 30.8 °F 21.2 °F 60% 29.94 in 10.0 mi West 3.5 mph - N/A   Clear
6:15 AM 33.8 °F 29.6 °F 23.0 °F 65% 29.94 in 10.0 mi West 4.6 mph - N/A   Clear
6:35 AM 32.0 °F - 23.0 °F 69% 29.95 in 10.0 mi Calm Calm - N/A   Clear
6:55 AM 32.0 °F - 23.0 °F 69% 29.95 in 10.0 mi Calm Calm - N/A   Clear
7:15 AM 30.2 °F - 21.2 °F 69% 29.95 in 10.0 mi Calm Calm - N/A   Clear
7:35 AM 30.2 °F - 23.0 °F 75% 29.95 in 10.0 mi Calm Calm - N/A   Clear
7:55 AM 28.4 °F - 23.0 °F 80% 29.96 in 10.0 mi Calm Calm - N/A   Clear
8:15 AM 30.2 °F - 23.0 °F 75% 29.96 in 10.0 mi Calm Calm - N/A   Clear
8:35 AM 32.0 °F - 24.8 °F 75% 29.97 in 10.0 mi Calm Calm - N/A   Clear
8:55 AM 35.6 °F 32.8 °F 24.8 °F 65% 29.97 in 10.0 mi SW 3.5 mph - N/A   Clear
9:15 AM 39.2 °F 35.9 °F 24.8 °F 56% 29.98 in 10.0 mi SW 4.6 mph - N/A   Clear
9:35 AM 39.2 °F 34.2 °F 24.8 °F 56% 29.99 in 10.0 mi WSW 6.9 mph - N/A   Clear
9:55 AM 41.0 °F 39.0 °F 26.6 °F 57% 29.99 in 10.0 mi WSW 3.5 mph - N/A   Clear
10:15 AM 41.0 °F 38.0 °F 26.6 °F 57% 30.00 in 10.0 mi WSW 4.6 mph - N/A   Clear
10:35 AM 42.8 °F 40.1 °F 26.6 °F 53% 30.00 in 10.0 mi WSW 4.6 mph - N/A   Clear
10:55 AM 42.8 °F 40.1 °F 26.6 °F 53% 30.00 in 10.0 mi SSW 4.6 mph - N/A   Clear
11:15 AM 44.6 °F 40.7 °F 26.6 °F 49% 30.00 in 10.0 mi SSW 6.9 mph - N/A   Clear
11:35 AM 46.4 °F 42.4 °F 26.6 °F 46% 29.99 in 10.0 mi SSW 8.1 mph - N/A   Clear
11:55 AM 50.0 °F - 26.6 °F 40% 29.98 in 10.0 mi SW 8.1 mph - N/A   Clear
12:15 PM 50.0 °F - 26.6 °F 40% 29.97 in 10.0 mi SW 8.1 mph - N/A   Clear
12:35 PM 51.8 °F - 28.4 °F 41% 29.96 in 10.0 mi WSW 8.1 mph 17.3 mph N/A   Clear
12:55 PM 51.8 °F - 28.4 °F 41% 29.95 in 10.0 mi SSW 10.4 mph - N/A   Clear
1:15 PM 53.6 °F - 28.4 °F 38% 29.93 in 10.0 mi SW 12.7 mph 17.3 mph N/A   Clear
1:35 PM 53.6 °F - 28.4 °F 38% 29.92 in 10.0 mi SSW 10.4 mph - N/A   Clear
1:55 PM 53.6 °F - 28.4 °F 38% 29.91 in 10.0 mi WSW 8.1 mph 18.4 mph N/A   Clear
2:15 PM 55.4 °F - 28.4 °F 36% 29.90 in 10.0 mi SW 9.2 mph - N/A   Clear
2:35 PM 55.4 °F - 30.2 °F 38% 29.90 in 10.0 mi WSW 4.6 mph - N/A   Clear
2:55 PM 55.4 °F - 30.2 °F 38% 29.89 in 10.0 mi WSW 5.8 mph - N/A   Clear
3:15 PM 57.2 °F - 30.2 °F 36% 29.89 in 10.0 mi SSW 5.8 mph - N/A   Clear
3:35 PM 57.2 °F - 30.2 °F 36% 29.88 in 10.0 mi South 10.4 mph - N/A   Clear
3:55 PM 59.0 °F - 30.2 °F 34% 29.88 in 10.0 mi SSW 6.9 mph - N/A   Clear
4:15 PM 59.0 °F - 30.2 °F 34% 29.88 in 10.0 mi SSW 10.4 mph - N/A   Clear
4:35 PM 55.4 °F - 30.2 °F 38% 29.88 in 10.0 mi SSW 5.8 mph - N/A   Clear
4:55 PM 55.4 °F - 28.4 °F 36% 29.88 in 10.0 mi South 6.9 mph - N/A   Clear
5:15 PM 53.6 °F - 30.2 °F 41% 29.88 in 10.0 mi SSW 8.1 mph - N/A   Clear
5:35 PM 53.6 °F - 30.2 °F 41% 29.88 in 10.0 mi South 4.6 mph - N/A   Clear
5:55 PM 51.8 °F - 30.2 °F 44% 29.89 in 10.0 mi South 4.6 mph - N/A   Clear
6:15 PM 51.8 °F - 30.2 °F 44% 29.89 in 10.0 mi South 4.6 mph - N/A   Clear
6:35 PM 51.8 °F - 30.2 °F 44% 29.89 in 10.0 mi South 4.6 mph - N/A   Clear
6:55 PM 50.0 °F - 30.2 °F 47% 29.90 in 10.0 mi SSE 3.5 mph - N/A   Clear
7:15 PM 50.0 °F - 30.2 °F 47% 29.90 in 10.0 mi SSE 3.5 mph - N/A   Clear
7:35 PM 50.0 °F - 30.2 °F 47% 29.90 in 10.0 mi South 3.5 mph - N/A   Clear
7:55 PM 50.0 °F - 30.2 °F 47% 29.90 in 10.0 mi South 4.6 mph - N/A   Clear
8:15 PM 50.0 °F - 30.2 °F 47% 29.90 in 10.0 mi South 5.8 mph - N/A   Clear
8:35 PM 50.0 °F - 30.2 °F 47% 29.91 in 10.0 mi South 4.6 mph - N/A   Clear
8:55 PM 50.0 °F - 32.0 °F 50% 29.91 in 10.0 mi South 5.8 mph - N/A   Clear
9:15 PM 50.0 °F - 32.0 °F 50% 29.91 in 10.0 mi South 5.8 mph - N/A   Clear
9:35 PM 48.2 °F - 32.0 °F 54% 29.91 in 10.0 mi SSE 4.6 mph - N/A   Clear
9:55 PM 48.2 °F - 32.0 °F 54% 29.90 in 10.0 mi SSE 5.8 mph - N/A   Clear
10:15 PM 46.4 °F 44.3 °F 32.0 °F 57% 29.90 in 10.0 mi South 4.6 mph - N/A   Clear
10:35 PM 48.2 °F - 32.0 °F 54% 29.90 in 10.0 mi South 4.6 mph - N/A   Clear
10:55 PM 48.2 °F - 32.0 °F 54% 29.91 in 10.0 mi South 5.8 mph - N/A   Clear
11:15 PM 48.2 °F - 32.0 °F 54% 29.91 in 10.0 mi South 5.8 mph - N/A   Scattered Clouds
11:35 PM 48.2 °F - 32.0 °F 54% 29.90 in 10.0 mi South 4.6 mph - N/A   Scattered Clouds
11:55 PM 46.4 °F 45.2 °F 32.0 °F 57% 29.91 in 10.0 mi South 3.5 mph - N/A   Scattered Clouds